This demonstration page uses our WeatherBlox Daily Observations layout. Learn more.

Left ArrowRight Arrow

Hourly Observations for September 2, 2015

Temp ( °F °C ) Dew Point ( °F °C ) Humidity (%) Winds ( mph kmh ) Pressure ( in mb ) Visibility ( mi km ) Precip ( " mm )
12:53 am 00:53 Clear with Mist and Fog 68 20 66 18.9 93 93 Calm 30.11 1020 4 6.43736 0 0
1:53 am 01:53 Clear with Mist and Fog 68 20 66 18.9 93 93 Calm 30.11 1020 3 4.82802 0 0
2:53 am 02:53 Clear with Mist and Fog 67 19.4 66 18.9 97 97 Calm 30.09 1019 4 6.43736 0 0
3:25 am 03:25 Clear with Mist and Fog 67 19.4 65 18.3 93 93 Calm 30.09 1019 2 3.21868 0 0
3:34 am 03:34 Clear with Mist and Fog 67 19.4 65 18.3 93 93 Calm 30.09 1019 1.75 2.816345 0 0
3:42 am 03:42 Clear with Mist and Fog 67 19.4 66 18.9 97 97 Calm 30.09 1019 2 3.21868 0 0
3:53 am 03:53 Clear with Mist and Fog 67 19.4 65 18.3 93 93 Calm 30.09 1019 4 6.43736 0 0
4:19 am 04:19 Clear with Mist and Fog 66 18.9 65 18.3 96 96 Calm 30.09 1019 2.5 4.02335 0 0
4:47 am 04:47 Clear with Mist and Fog 64 18 64 18 100 100 Calm 30.09 1019 1 1.60934 0 0
4:53 am 04:53 Clear with Mist and Fog 66 18.9 64 17.8 93 93 Calm 30.1 1019 1 1.60934 0 0
4:57 am 04:57 Mostly Clear with Mist and Fog 66 18.9 64 17.8 93 93 Calm 30.09 1019 1.75 2.816345 0 0
5:01 am 05:01 Mostly Cloudy with Mist and Fog 66 18.9 65 18.3 96 96 Calm 30.09 1019 0.75 1.207005 0 0
5:12 am 05:12 Partly Cloudy with Mist and Fog 66 18.9 65 18.3 96 96 Calm 30.09 1019 1.25 2.011675 0 0
5:18 am 05:18 Mostly Cloudy with Mist and Fog 66 18.9 65 18.3 96 96 Calm 30.09 1019 0.75 1.207005 0 0
5:37 am 05:37 Mostly Cloudy with Mist and Fog 66 18.9 65 18.3 96 96 Calm 30.09 1019 1.5 2.41401 0 0
5:40 am 05:40 Mostly Cloudy with Mist and Fog 65 18.3 64 17.8 97 97 Calm 30.09 1019 2 3.21868 0 0
5:49 am 05:49 Cloudy with Mist and Fog 64 18 64 18 100 100 Calm 30.09 1019 3 4.82802 0 0
5:53 am 05:53 Mostly Cloudy with Mist and Fog 66 18.9 64 17.8 93 93 Calm 30.1 1019 3 4.82802 0 0
6:05 am 06:05 Mostly Cloudy with Mist and Fog 66 18.9 64 17.8 93 93 Calm 30.09 1019 2.5 4.02335 0 0
6:12 am 06:12 Mostly Cloudy with Mist and Fog 65 18.3 64 17.8 97 97 Calm 30.09 1019 1.25 2.011675 0 0
6:25 am 06:25 Mostly Clear with Mist and Fog 65 18.3 64 17.8 97 97 Calm 30.09 1019 1.75 2.816345 0 0
6:32 am 06:32 Clear with Mist and Fog 65 18.3 64 17.8 97 97 Calm 30.09 1019 2 3.21868 0 0
6:36 am 06:36 Clear with Mist and Fog 65 18.3 64 17.8 97 97 Calm 30.09 1019 1.5 2.41401 0 0
6:46 am 06:46 Clear with Mist and Fog 65 18.3 63 17.2 93 93 Calm 30.09 1019 2.5 4.02335 0 0
6:53 am 06:53 Clear with Mist and Fog 65 18.3 64 17.8 97 97 Calm 30.11 1020 2 3.21868 0 0
6:55 am 06:55 Clear with Mist and Fog 65 18.3 63 17.2 93 93 Calm 30.09 1019 1.5 2.41401 0 0
7:06 am 07:06 Mostly Clear with Mist and Fog 65 18.3 64 17.8 97 97 Calm 30.09 1019 1.75 2.816345 0 0
7:13 am 07:13 Sunny with Fog 65 18.3 64 17.8 97 97 Calm 30.09 1019 0.5 0.80467 0 0
7:22 am 07:22 Mostly Cloudy with Fog 65 18.3 63 17.2 93 93 Calm 30.09 1019 0.25 0.402335 0 0
7:40 am 07:40 Mostly Cloudy with Mist and Fog 65 18.3 64 17.8 97 97 Calm 30.12 1020 1 1.60934 0 0
7:53 am 07:53 Partly Cloudy with Mist and Fog 67 19.4 65 18.3 93 93 Calm 30.13 1020 1.75 2.816345 0 0
8:03 am 08:03 Sunny with Mist and Fog 67 19.4 66 18.9 97 97 Calm 30.12 1020 2 3.21868 0 0
8:36 am 08:36 Sunny with Mist and Fog 71 21.7 68 20 90 90 Calm 30.12 1020 3 4.82802 0 0
8:53 am 08:53 Sunny with Mist and Fog 72 22.2 69 20.6 91 91 Calm 30.14 1021 3 4.82802 0 0
9:53 am 09:53 Hazy 75 23.9 70 21.1 84 84 SSW 3 6 30.14 1021 5 8.0467 0 0
10:53 am 10:53 Sunny 82 27.8 70 21.1 67 67 VRB 3 6 30.14 1021 8 12.87472 0 0
11:53 am 11:53 Sunny 85 29.4 70 21.1 61 61 WSW 8 13 30.12 1020 9 14.48406 0 0
12:53 pm 12:53 Partly Cloudy 87 30.6 71 21.7 59 59 WNW 7 11 30.1 1019 10 16.0934 0 0
1:53 pm 13:53 Partly Cloudy 87 30.6 69 20.6 55 55 WNW 5 7 30.08 1019 N/A 0 0
2:53 pm 14:53 Mostly Sunny 89 31.7 69 20.6 52 52 undefined N/A 30.06 1018 10 16.0934 0 0
3:53 pm 15:53 Sunny 90 32.2 69 20.6 50 50 WNW 8 13 30.03 1017 10 16.0934 0 0
4:53 pm 16:53 Partly Cloudy 90 32.2 66 18.9 45 45 WNW 8 13 30.02 1017 10 16.0934 0 0
5:53 pm 17:53 Sunny 89 31.7 68 20 50 50 VRB 3 6 30 1016 10 16.0934 0 0
6:53 pm 18:53 Sunny 87 30.6 69 20.6 55 55 VRB 6 9 30 1016 10 16.0934 0 0
7:53 pm 19:53 Sunny 81 27.2 69 20.6 67 67 SE 3 6 30.01 1016 10 16.0934 0 0
8:53 pm 20:53 Clear 76 24.4 68 20 77 77 E 5 7 30.01 1016 10 16.0934 0 0
9:53 pm 21:53 Mostly Clear 74 23.3 68 20 82 82 E 3 6 30.03 1017 10 16.0934 0 0
10:53 pm 22:53 Clear 70 21.1 67 19.4 90 90 Calm 30.04 1017 9 14.48406 0 0
11:53 pm 23:53 Clear 69 20.6 67 19.4 93 93 Calm 30.03 1017 7 11.26538 0 0

Powered by AerisWeather